RH
92 92 88 85 84 83 80 76 74 72 66 62 64 65 64 64 64 64 66 67 64 57 56 62 62 57 57 59 67 77 79 80 78 74 78 80 76 67 66 82 90 86 89 90 90 89 90 90 90 90 88 88 87 86 90 93 91 91 91 90 92 92 92 92 90 91 90 92 96 93 90 89 87 88 89 89 89 89 90 91 91 91 91 90 90
92 90 87 85 85 88 87 83 77 68 65 70 70 66 65 68 70 69 67 65 63 59 58 59 57 57 58 58 69 80 81 82 81 78 80 79 73 68 67 76 80 80 87 91 91 90 90 91 90 89 89 89 88 89 91 92 91 92 92 90 91 92 92 91 90 91 90 92 95 92 90 90 89 88 90 89 88 89 89 89 90 90 89 88 90
90 90 88 87 88 92 91 88 83 69 65 73 74 70 69 72 71 68 66 65 65 63 61 57 55 59 59 58 67 79 83 84 84 80 76 75 74 70 67 70 77 85 93 93 93 90 87 88 89 89 91 90 88 85 86 88 89 91 92 91 92 91 91 92 91 91 92 92 92 91 90 91 91 90 91 90 90 89 88 90 90 89 88 88 91
87 87 85 84 83 83 79 80 83 75 71 71 71 72 71 72 68 64 68 69 68 66 63 58 57 63 66 62 64 76 85 86 87 82 74 73 76 77 74 73 78 85 89 90 90 88 87 90 89 89 92 91 87 85 87 88 87 89 91 92 93 91 91 91 91 90 90 91 92 91 91 93 92 90 90 90 89 89 89 90 88 87 89 89 90
82 81 79 78 76 74 71 73 74 73 76 75 71 72 71 70 67 68 72 72 71 69 66 62 61 67 71 66 65 77 86 87 89 85 77 74 76 82 82 78 80 79 78 85 90 89 89 90 88 86 85 83 86 90 90 85 83 87 91 92 92 92 91 91 91 90 90 91 91 91 92 92 90 90 91 89 87 91 92 91 90 89 91 91 89
77 76 75 74 74 73 71 70 70 69 72 78 77 72 71 68 70 79 76 72 76 73 68 66 66 71 73 69 70 79 86 89 93 88 82 77 76 83 86 85 86 82 76 78 84 85 85 88 90 87 80 76 80 87 88 85 85 86 89 91 91 90 90 92 91 90 92 92 89 90 92 91 89 91 93 91 90 94 94 93 93 91 91 92 90
75 74 75 75 76 76 72 69 75 77 72 78 79 72 72 68 73 87 79 72 78 72 70 71 72 77 81 78 75 80 87 92 94 92 86 81 81 84 86 88 88 86 81 75 77 79 80 85 87 83 81 79 77 77 80 87 90 87 87 90 90 90 90 91 90 90 91 91 89 90 91 90 91 91 93 94 94 93 91 93 95 93 92 91 91
78 76 74 75 77 77 77 75 77 82 79 81 81 75 76 73 77 89 78 73 77 73 75 76 78 85 88 84 77 78 89 96 95 95 93 90 90 88 86 87 86 85 84 80 80 78 78 84 85 83 87 88 86 82 79 83 89 88 87 85 86 89 90 90 91 90 90 92 91 91 90 89 90 91 90 91 91 90 90 93 95 93 92 92 93
81 78 74 74 77 77 80 79 76 80 81 82 82 78 77 75 80 87 77 71 76 77 77 81 88 91 88 86 81 80 87 95 96 96 97 96 95 92 88 90 87 82 84 88 89 85 84 88 90 92 93 92 93 94 88 84 84 84 87 85 82 86 90 91 93 90 88 91 92 90 89 88 88 87 87 88 88 88 91 94 95 95 93 92 93
78 73 70 71 75 78 81 80 78 79 78 78 80 77 75 77 81 88 81 71 72 77 77 84 91 88 89 93 91 87 87 90 95 96 94 93 94 93 92 92 89 86 86 88 90 90 90 92 93 94 95 94 95 96 95 90 84 81 87 87 83 86 86 84 89 90 86 87 89 88 89 90 87 85 84 83 80 79 83 87 89 89 87 85 86
73 70 70 71 76 81 83 82 80 78 75 76 79 76 76 77 77 88 89 73 68 75 80 89 90 84 91 99 97 96 93 93 98 97 92 91 93 93 94 93 90 89 87 83 87 91 90 90 91 93 95 96 97 97 97 96 92 87 87 85 83 86 84 80 85 90 87 83 82 80 79 79 79 81 78 71 68 68 69 72 74 76 76 76 77
74 75 74 74 78 83 83 81 79 77 73 73 76 77 78 76 75 86 93 79 71 76 85 93 93 89 95 98 97 99 97 95 97 96 94 92 92 92 93 94 92 92 89 85 86 86 86 89 90 92 94 95 97 97 96 98 98 94 90 87 85 85 85 81 79 86 86 74 65 61 61 67 74 78 71 58 55 58 63 68 69 71 72 73 74
78 78 76 76 81 83 82 80 77 76 72 71 75 78 80 79 79 87 93 86 76 79 88 94 96 97 99 98 97 99 99 97 94 92 94 94 92 93 93 92 94 93 91 91 88 85 87 91 92 91 91 94 95 96 96 97 97 97 94 88 85 85 87 81 66 65 68 60 59 64 66 73 81 83 77 64 55 58 65 69 71 73 74 76 78
78 77 77 79 81 81 81 78 74 75 73 75 76 76 81 78 78 86 91 88 82 83 90 89 93 98 97 98 99 99 100 99 95 92 95 97 93 94 96 94 94 93 92 92 90 87 90 93 94 90 87 89 90 91 95 96 95 97 96 89 85 86 87 76 53 41 49 64 81 88 85 83 84 87 89 84 76 73 74 76 81 84 84 87 89
77 76 78 80 80 80 80 74 73 75 73 76 76 77 82 75 74 84 84 86 87 86 84 79 84 92 92 96 99 98 99 99 97 95 97 99 94 92 98 98 95 93 93 92 89 89 90 94 96 89 83 84 85 86 91 94 95 96 96 94 89 89 86 69 46 35 47 77 97 96 94 92 90 92 92 92 91 88 87 88 92 95 95 94 92
78 77 77 79 80 80 78 72 74 77 73 76 76 77 81 73 76 84 78 80 88 86 80 73 76 84 89 94 94 94 98 98 99 100 98 99 96 94 98 98 95 93 92 90 90 91 90 92 96 92 87 87 88 87 88 91 93 93 95 96 93 92 88 69 48 38 47 77 97 96 96 96 95 96 93 93 95 93 94 95 97 100 96 86 83
79 77 74 76 79 79 77 75 76 77 76 78 78 76 77 74 78 82 75 76 84 84 81 74 71 74 79 88 92 95 99 97 96 99 99 98 97 96 96 95 94 93 92 91 91 91 89 90 94 93 91 91 92 91 88 86 88 90 92 96 96 92 88 75 58 48 56 79 95 96 96 96 96 97 94 93 94 95 97 96 95 90 75 69 81
79 75 73 76 80 78 76 77 77 76 77 80 81 80 79 79 80 77 73 75 79 83 84 77 74 75 74 78 83 86 92 95 96 98 99 98 98 98 96 95 94 92 92 92 92 91 89 90 91 92 91 91 92 90 84 83 85 86 87 92 96 93 88 83 73 70 76 86 93 96 95 94 94 94 93 95 97 97 91 81 72 59 46 58 81
79 74 76 78 80 78 75 77 78 78 80 81 81 80 78 78 78 74 72 73 75 80 84 81 78 79 76 74 76 76 78 86 92 97 99 98 99 99 98 98 97 94 93 93 91 91 91 92 92 93 92 91 92 90 85 86 88 87 86 89 94 94 92 89 85 85 87 89 94 95 93 92 91 93 95 94 88 78 65 52 44 37 36 48 63
81 77 79 79 77 77 77 79 81 83 83 82 79 77 77 77 77 76 73 72 74 77 82 81 77 77 79 79 79 77 74 76 80 87 93 98 100 99 98 100 99 97 96 95 93 92 92 93 94 96 95 93 92 92 90 90 91 88 86 89 93 96 95 93 91 91 92 93 94 94 94 92 91 93 86 69 55 46 39 35 32 31 34 37 41
85 81 79 78 77 79 78 78 83 86 84 82 79 77 77 76 76 76 74 72 74 75 78 80 76 75 81 83 80 77 76 75 75 79 88 96 99 99 99 99 99 98 95 94 94 93 93 93 93 93 95 96 93 91 91 91 91 89 86 88 91 95 97 95 93 95 97 96 95 96 94 91 92 91 70 45 34 33 31 31 30 29 30 29 29
83 81 79 79 81 82 80 79 83 86 83 81 79 78 78 75 75 76 73 73 74 73 75 77 74 74 77 79 77 76 78 79 78 79 85 91 95 98 98 97 98 97 94 93 92 91 92 92 90 90 94 98 96 93 93 92 91 88 86 88 91 95 98 96 94 96 97 97 97 96 93 95 95 78 49 32 30 30 28 26 26 25 25 25 25
81 80 80 80 82 82 81 78 78 81 81 79 78 77 77 76 78 78 75 73 72 74 78 75 72 76 77 74 71 71 75 78 77 77 80 87 94 98 97 94 94 94 91 90 89 89 89 90 91 94 95 96 96 94 92 91 90 87 86 89 92 96 98 96 95 96 96 96 96 96 96 93 79 54 37 41 46 44 39 30 25 24 22 22 22
80 79 79 78 78 78 78 76 75 76 75 74 74 76 75 77 80 80 78 77 74 77 83 80 75 76 76 73 69 69 71 72 72 72 73 80 91 96 94 91 91 91 89 88 89 89 88 90 93 94 94 93 93 90 88 87 87 86 87 90 93 95 95 94 94 94 94 95 94 94 87 68 51 40 40 48 49 46 41 33 32 34 36 37 34
77 78 78 77 75 74 74 73 72 71 68 67 71 72 70 70 74 76 77 79 79 79 83 82 79 76 75 74 72 71 72 72 71 71 71 76 86 91 88 86 88 90 89 89 91 91 89 90 90 89 90 92 91 88 86 86 88 88 88 90 91 91 91 91 92 94 92 88 83 76 60 40 32 32 31 31 29 27 27 26 29 34 44 55 58
77 77 74 73 72 71 69 67 66 65 63 65 67 66 63 63 67 70 73 78 82 83 82 80 79 79 77 76 75 75 77 74 70 70 71 74 80 83 81 82 85 86 85 86 89 91 92 91 88 86 89 91 88 86 86 86 88 90 88 89 89 86 82 78 78 78 72 62 52 42 33 28 28 29 29 31 31 30 28 26 26 27 33 41 48
75 73 70 70 69 68 66 64 64 63 60 62 64 65 65 65 66 69 73 78 81 83 81 76 78 82 80 77 78 80 79 71 65 67 69 71 73 74 76 81 85 83 80 82 84 87 90 89 86 84 84 87 84 81 83 85 87 89 85 83 80 71 60 51 48 45 40 34 30 28 29 32 34 36 39 40 41 42 40 36 32 28 27 28 31
71 70 70 68 65 64 64 62 63 62 60 59 60 63 65 64 66 70 75 79 80 80 79 75 76 80 80 78 78 79 75 68 63 64 65 69 69 68 70 75 82 85 83 83 82 83 86 85 84 82 77 76 76 72 72 75 78 78 71 64 58 48 38 32 31 29 27 27 30 33 36 39 41 43 44 45 48 51 51 50 45 37 30 25 25
70 70 68 66 63 63 63 63 63 62 60 57 58 62 62 61 65 70 75 79 79 77 77 75 74 74 75 73 71 70 70 67 65 63 63 66 66 65 67 68 72 80 85 87 85 83 83 80 81 84 78 67 62 57 53 54 57 56 51 46 42 35 30 27 27 27 27 31 36 40 42 45 47 47 48 49 52 54 56 57 56 51 42 31 24
67 67 65 64 64 64 64 64 62 61 60 59 61 62 59 60 65 69 73 72 71 73 75 74 73 72 70 69 68 69 68 65 65 64 62 62 63 62 63 62 63 67 75 83 84 80 79 77 75 79 76 62 50 43 37 36 38 38 37 37 35 31 28 28 27 27 30 36 41 46 48 49 51 51 52 54 55 56 57 58 59 58 54 44 32
64 64 63 64 65 65 63 63 62 62 61 59 61 60 58 62 64 64 66 63 63 68 70 70 71 72 70 69 69 69 67 65 64 63 61 61 62 60 58 56 55 58 62 72 79 76 74 74 72 70 67 55 43 35 30 30 32 32 32 31 31 30 28 28 28 30 34 42 47 50 51 52 52 53 54 54 55 56 56 57 59 59 59 55 44
63 63 63 64 64 63 62 64 63 61 58 56 58 59 59 62 59 57 58 56 57 62 63 66 71 71 70 68 68 68 65 64 63 60 59 60 59 58 55 50 49 52 55 62 71 72 68 68 68 67 64 54 39 31 27 28 30 31 31 31 30 29 28 29 31 34 41 47 50 51 51 52 52 53 53 53 54 54 55 56 57 58 59 59 54
64 63 63 62 62 63 64 65 61 57 56 54 56 56 54 55 53 52 53 51 51 53 56 63 69 70 70 69 69 67 64 64 62 58 54 53 52 52 50 47 44 47 49 53 61 63 61 62 63 65 65 53 36 28 27 30 33 33 32 31 30 28 29 31 34 40 47 50 50 50 50 51 51 51 51 51 51 52 53 54 55 57 58 59 58
63 62 61 59 61 64 64 64 60 55 54 53 53 52 50 50 49 46 46 46 46 46 51 59 64 67 69 70 70 69 67 65 62 56 50 46 46 46 45 44 43 44 45 46 51 56 58 59 59 59 57 46 35 32 29 29 34 37 35 31 30 29 30 32 36 43 49 50 49 50 49 49 50 50 50 50 51 51 51 53 54 55 57 58 59
63 60 57 56 59 61 62 63 59 54 54 53 51 50 48 46 44 41 40 41 43 45 50 57 60 63 68 69 70 69 67 63 57 51 48 45 43 42 43 43 42 43 43 40 42 50 54 53 52 51 49 44 38 37 34 31 32 37 39 32 28 30 31 32 36 42 48 49 48 48 48 48 49 49 49 49 49 50 50 51 53 54 55 57 58
62 56 53 54 56 57 58 60 59 56 54 52 51 51 48 42 40 41 41 40 41 45 50 55 57 62 67 69 70 68 64 59 53 48 45 43 41 39 40 41 39 39 42 38 36 43 47 47 44 43 44 43 39 36 39 39 35 37 40 34 28 29 30 31 33 38 44 47 47 47 47 47 48 48 48 49 49 49 50 50 51 53 54 56 58
60 54 52 52 50 50 51 53 56 57 54 51 51 51 47 42 41 42 41 41 43 45 49 52 56 62 67 67 67 64 60 55 50 46 43 42 40 38 39 40 38 38 41 39 36 37 39 40 40 39 40 40 38 37 40 43 41 42 44 38 30 27 28 30 31 33 37 42 45 46 46 46 47 47 47 48 48 48 49 50 51 52 54 55 57
58 52 51 49 45 43 43 45 51 55 54 51 49 45 42 41 42 43 42 43 45 47 49 50 52 59 64 64 63 60 56 52 49 47 45 43 42 42 41 40 40 40 41 41 38 36 36 36 36 36 36 36 37 40 41 40 41 44 47 42 32 27 28 30 32 32 34 37 41 44 45 45 46 46 47 47 48 47 47 48 50 51 54 55 57
55 51 50 48 45 41 40 41 47 51 52 49 44 40 40 41 43 44 43 42 43 45 47 48 51 57 59 58 57 56 52 50 49 49 47 45 44 45 44 42 40 40 41 43 42 38 35 34 34 33 32 32 35 38 40 41 39 40 44 44 36 30 29 29 30 33 34 37 39 41 43 45 45 45 46 46 47 47 47 48 49 51 54 55 57
53 51 50 48 45 41 40 41 45 48 48 45 41 40 42 44 45 45 43 42 43 44 43 45 48 52 54 53 53 53 51 51 50 50 50 48 47 47 46 45 44 43 44 48 47 44 40 36 35 35 32 29 32 36 39 44 46 44 43 42 39 36 33 31 33 37 39 40 41 42 43 45 46 46 47 47 48 48 48 48 48 50 54 56 57
53 52 51 49 46 42 41 42 44 46 45 44 43 43 45 45 45 45 44 44 48 48 47 49 51 52 54 54 54 53 52 52 52 50 50 49 48 49 49 48 48 48 49 51 52 51 51 48 46 45 39 32 34 40 42 43 44 44 43 41 40 39 36 33 34 38 41 42 42 43 44 44 45 46 46 46 47 48 48 48 48 50 53 56 57
53 52 49 49 47 44 44 46 47 48 49 49 50 48 46 46 46 48 47 47 50 53 53 55 58 59 59 59 58 58 56 55 54 55 54 52 49 48 49 48 50 50 50 52 53 53 56 57 56 55 50 43 41 45 48 46 44 43 44 43 40 39 39 40 40 40 40 42 43 43 43 43 44 45 46 47 48 49 49 48 48 49 52 55 57
51 50 48 51 52 49 50 51 51 53 54 56 57 54 51 50 50 50 52 53 54 55 56 57 60 61 62 62 62 61 59 58 56 56 59 60 57 53 50 47 48 51 51 51 53 53 54 57 59 59 61 60 54 51 51 52 52 50 48 45 43 42 44 48 51 46 42 42 45 44 43 43 44 45 46 49 50 50 49 47 47 49 52 55 56
49 49 53 59 60 57 58 58 56 56 56 57 58 57 55 55 55 55 57 61 62 61 59 58 59 61 63 64 64 61 61 63 63 61 61 61 60 61 60 55 51 50 50 50 51 52 52 54 57 60 65 67 63 58 55 53 53 54 52 51 49 49 51 52 52 49 44 43 45 46 44 43 44 45 48 51 53 51 49 48 48 50 53 55 56
53 55 61 64 64 63 63 62 59 56 55 54 53 54 54 55 56 55 54 56 60 64 65 62 60 61 62 63 64 62 59 62 66 66 64 61 61 66 71 71 67 63 58 55 57 59 58 58 59 59 61 62 62 63 62 58 56 56 56 53 51 53 58 57 53 50 49 47 46 48 48 46 46 49 53 56 58 57 54 51 50 51 53 55 55
61 65 67 67 67 66 64 62 58 53 52 52 49 47 47 48 50 49 45 46 53 61 66 67 64 63 63 62 63 61 59 62 64 64 67 70 69 69 69 71 76 78 73 70 71 71 70 70 69 67 66 65 64 64 63 62 62 61 59 57 56 56 59 60 57 56 56 54 51 52 56 57 57 60 62 62 64 65 61 56 53 54 58 57 55
61 63 65 64 65 65 60 55 52 50 49 51 47 41 38 38 39 37 37 47 61 69 71 71 69 67 66 64 62 60 62 66 67 65 69 70 67 70 74 75 78 80 76 73 74 74 74 74 72 72 72 71 70 68 66 67 68 67 65 64 64 62 61 61 62 62 65 65 59 58 66 71 68 68 70 71 72 72 67 63 60 62 66 64 59
61 59 60 63 65 63 53 44 44 49 52 54 51 44 40 38 36 37 44 56 71 78 76 75 73 71 70 68 64 65 69 74 73 70 71 69 67 73 78 77 80 81 76 74 74 74 75 75 73 74 76 77 76 74 72 72 71 70 70 69 67 66 65 66 67 68 71 74 70 67 76 81 77 74 77 77 74 73 73 71 66 64 68 70 65
70 70 68 71 75 73 66 58 57 61 65 66 64 59 56 53 50 54 63 70 76 79 76 75 75 75 75 73 68 68 73 78 80 79 79 80 81 83 82 80 83 85 80 77 77 77 79 79 76 76 78 80 79 76 74 74 72 71 74 74 72 70 69 71 73 72 72 77 77 75 79 82 79 78 80 76 69 67 71 73 68 63 64 68 67
85 86 82 83 87 87 83 81 78 76 77 78 76 73 70 68 66 67 71 73 77 83 83 79 77 76 77 77 75 76 78 81 85 86 86 88 88 87 88 87 87 86 83 80 79 80 83 83 80 79 79 78 77 74 73 73 72 71 74 75 75 75 74 75 77 76 76 78 77 76 80 83 81 79 79 75 67 61 62 64 63 61 62 65 65
95 94 90 88 90 87 85 85 82 79 78 77 76 76 75 73 72 72 73 74 78 84 87 85 80 76 76 79 82 85 85 84 84 83 81 80 76 76 82 85 85 86 85 84 85 87 88 86 82 80 79 76 73 72 72 73 72 72 73 73 75 77 77 77 78 79 81 81 78 79 82 82 79 78 78 77 72 67 63 61 58 58 60 63 63
Wind_Speed
15 15 13 12 10 8 8 8 7 7 9 11 10 9 10 11 9 7 8 6 5 6 6 8 9 6 3 3 8 13 12 10 9 10 13 14 14 12 13 15 13 12 12 12 12 11 11 11 11 11 11 11 11 11 11 12 11 12 12 12 12 13 14 14 13 12 11 12 13 14 13 11 10 11 12 13 12 12 13 13 14 14 14 14 15
15 14 13 11 10 9 9 9 7 7 9 10 9 7 8 10 8 8 8 6 6 7 6 7 7 5 4 5 12 15 12 11 10 11 14 15 14 13 13 14 14 13 13 12 12 11 11 11 10 10 10 10 10 10 10 11 11 11 11 12 12 12 13 13 12 12 12 13 14 14 12 11 11 11 12 13 13 12 13 14 14 14 14 14 15
15 15 14 12 12 12 10 10 11 11 8 7 9 8 7 8 9 10 8 7 7 6 6 6 5 6 8 9 14 16 13 13 12 12 14 14 14 14 14 14 14 14 13 12 11 11 11 11 11 10 9 9 8 8 9 10 11 11 11 12 12 12 12 13 12 12 12 13 13 13 12 12 12 12 12 13 13 13 13 14 14 14 15 15 16
17 16 15 15 14 13 12 11 12 13 9 9 11 9 8 9 10 10 7 6 7 6 6 7 7 9 10 9 13 17 15 14 13 13 14 14 14 13 14 14 13 13 13 12 11 10 11 11 11 10 9 8 7 7 9 9 10 11 11 12 12 12 12 12 12 12 12 12 12 12 12 12 12 12 12 13 13 14 14 14 14 14 15 16 16
18 17 15 15 14 13 13 12 13 12 10 10 11 10 10 10 10 10 7 6 7 7 8 9 9 10 10 10 14 17 17 16 14 14 14 14 14 13 13 13 13 12 12 12 12 11 11 11 10 9 9 9 8 8 8 8 9 11 11 11 11 11 11 11 11 11 11 12 12 12 12 12 12 13 13 13 15 16 16 15 15 15 15 15 16
17 17 14 15 14 12 12 13 12 11 9 10 10 11 10 10 10 9 8 7 7 8 9 11 12 11 11 13 16 17 17 16 15 15 14 14 14 14 13 13 12 11 11 12 12 12 12 12 10 9 10 10 10 9 8 7 9 11 11 11 10 10 11 11 11 11 11 11 12 12 12 12 13 13 14 14 16 17 16 16 16 15 16 15 15
15 15 13 14 13 12 12 13 12 11 10 9 9 10 9 8 8 9 10 9 9 11 11 12 13 13 12 13 16 17 17 16 16 15 14 14 15 15 14 12 11 10 10 11 12 12 12 12 12 11 11 11 11 11 10 9 9 10 10 11 10 10 11 11 10 11 11 11 11 12 12 13 13 13 14 14 15 15 16 16 16 16 16 16 16
13 13 13 13 13 13 14 14 13 13 12 10 10 9 8 7 7 9 10 9 12 16 13 12 13 13 12 12 14 16 16 16 15 15 14 13 13 14 14 12 10 10 10 10 11 11 12 12 12 11 10 11 11 11 12 11 10 9 9 10 10 10 10 10 11 11 11 11 11 12 12 12 13 13 13 14 14 15 16 16 16 16 16 16 16
13 13 13 13 13 14 16 15 14 14 13 13 11 9 9 8 5 6 8 9 14 16 13 14 15 14 13 12 12 13 16 16 14 13 13 13 13 13 13 12 11 10 10 10 10 10 10 9 9 9 9 9 9 9 10 11 10 10 10 9 10 11 10 11 11 11 11 11 11 11 12 12 12 12 13 13 14 15 16 15 15 16 15 16 16
13 12 12 13 14 15 15 15 15 15 14 13 11 11 12 9 4 6 9 13 14 14 15 18 17 15 15 14 13 13 15 15 14 12 11 11 13 13 13 12 11 10 10 10 9 9 9 8 8 8 9 9 9 8 7 9 10 11 11 9 10 11 10 10 11 10 10 11 12 11 11 12 12 12 12 13 14 15 15 15 15 15 16 16 16
14 13 14 15 15 15 14 14 14 14 14 12 10 11 12 11 7 7 12 15 13 15 19 20 16 13 14 14 12 11 12 13 13 11 9 9 11 13 13 12 12 11 10 10 9 9 9 8 7 7 8 8 8 7 7 7 8 10 10 9 10 11 9 8 10 11 10 10 11 11 11 11 11 12 12 13 14 15 16 16 16 16 17 17 16
15 16 16 16 17 15 14 14 14 13 13 12 11 10 11 11 9 9 14 16 13 16 21 21 18 12 12 13 12 11 9 9 10 10 9 9 10 11 13 13 13 12 11 10 10 9 9 8 8 7 7 7 7 7 7 8 9 10 10 9 9 10 9 7 9 11 10 11 12 13 12 12 12 12 12 13 15 16 17 17 16 16 15 15 15
17 17 16 17 17 16 14 14 13 12 11 12 11 11 12 12 11 11 16 19 14 15 21 22 21 16 12 10 11 11 9 8 8 9 9 8 9 10 12 12 13 14 13 12 11 10 10 9 8 7 7 7 7 8 8 7 8 10 11 10 9 11 9 7 8 10 11 13 15 15 14 13 13 13 13 13 14 15 16 16 15 15 14 13 13
18 17 16 18 17 15 14 13 13 11 11 12 12 12 13 14 14 12 14 20 17 19 24 21 18 17 15 10 7 9 9 8 8 8 8 7 8 10 10 11 12 14 13 11 11 10 10 9 9 8 8 9 8 8 8 7 7 9 11 10 10 11 9 6 7 11 14 16 15 14 14 14 13 14 14 13 13 13 13 13 13 13 12 12 10
18 18 18 18 16 15 13 13 12 11 11 12 11 12 13 14 14 12 13 19 19 22 23 16 16 19 16 8 3 4 5 5 6 5 7 8 9 10 10 11 12 12 12 11 10 9 9 10 10 10 10 9 9 9 9 8 8 9 10 11 11 10 9 7 8 12 15 16 14 13 13 13 13 13 13 12 11 11 10 10 10 10 10 9 8
19 19 18 16 15 13 13 13 12 11 11 11 12 14 14 13 13 13 14 17 17 17 14 12 18 19 10 4 3 3 2 3 6 5 6 10 8 8 11 12 12 10 10 10 11 10 9 11 11 11 10 8 8 9 9 9 9 9 10 12 12 10 9 7 8 11 14 15 15 13 12 12 12 11 10 10 10 9 8 8 8 9 9 8 9
19 18 17 16 14 13 13 13 12 10 11 11 13 13 12 13 13 12 14 16 16 14 11 11 18 16 8 6 5 2 1 5 7 5 5 8 8 8 10 11 11 10 10 12 12 11 10 10 11 11 10 9 8 9 9 9 9 9 11 12 12 11 11 9 9 11 14 16 16 13 12 11 11 11 10 9 9 8 9 9 10 10 9 9 11
19 17 17 16 14 13 13 13 12 10 10 12 12 11 11 12 12 12 13 15 16 15 14 14 15 12 9 8 3 3 9 9 5 3 4 7 8 9 9 9 11 11 11 12 12 12 11 11 11 11 10 9 10 11 10 10 10 9 10 12 13 12 12 11 10 12 14 16 15 12 11 11 11 10 9 9 9 9 10 10 9 9 9 11 12
20 18 17 15 14 13 13 13 12 11 11 10 10 11 12 11 11 12 12 14 17 16 16 15 14 12 10 7 4 9 20 15 6 4 3 5 8 9 9 10 11 12 12 12 11 12 12 11 11 11 11 9 10 11 10 10 10 9 10 12 12 13 14 14 12 12 13 13 12 11 10 10 10 10 10 11 10 10 10 9 9 9 10 11 12
19 18 16 15 13 12 13 13 13 12 10 10 10 11 12 12 11 12 11 13 15 15 16 15 14 12 10 9 9 13 21 17 13 12 5 2 5 7 9 11 11 12 12 12 11 11 11 10 11 11 11 11 11 11 10 10 9 10 10 11 12 13 15 15 14 13 12 12 12 11 9 9 10 11 11 11 10 10 10 9 10 10 10 11 11
18 16 15 14 13 12 13 14 14 13 11 11 11 11 12 13 13 12 11 12 13 14 15 14 13 13 12 12 13 16 16 14 16 16 9 5 4 3 7 9 8 9 11 10 10 10 10 10 9 10 11 12 11 11 10 10 10 10 10 11 12 14 16 16 15 13 13 12 11 10 9 10 12 13 12 11 10 10 10 9 10 10 10 10 10
17 15 14 13 12 13 14 14 14 13 12 12 12 12 11 11 11 11 12 12 12 13 14 12 11 13 13 13 15 16 14 10 13 16 12 8 5 5 10 10 8 9 10 10 10 9 10 11 10 10 12 13 11 10 9 10 10 10 10 11 12 15 16 15 14 13 13 12 11 11 12 14 15 14 12 11 11 11 10 10 10 10 10 10 11
16 15 15 13 11 13 14 12 13 13 12 13 13 12 12 11 10 11 11 12 12 13 12 10 11 13 13 12 15 17 14 10 14 17 13 9 7 7 10 12 12 12 11 11 11 9 9 10 12 12 13 13 11 9 9 10 11 10 11 12 14 16 16 15 14 15 15 15 15 15 16 16 15 14 13 12 12 12 12 11 11 11 11 11 11
16 16 15 13 13 14 14 12 13 12 11 11 13 13 13 11 10 11 12 12 12 13 13 11 11 14 13 11 12 14 13 12 16 17 15 16 15 10 11 14 10 11 14 13 12 11 9 11 13 13 12 11 10 9 10 11 12 12 13 15 17 18 18 18 19 20 19 18 17 16 16 16 15 14 13 12 12 12 11 11 11 11 11 11 10
17 16 15 14 14 15 15 14 13 12 10 11 14 15 13 12 11 10 11 11 11 13 13 12 11 12 11 10 11 12 11 12 15 15 15 21 21 13 13 15 10 11 14 13 13 12 11 12 11 10 10 11 11 12 13 14 15 16 17 19 21 21 21 22 23 22 21 20 19 18 17 16 15 14 13 13 12 11 11 10 10 10 10 10 9
18 17 17 16 15 15 15 13 13 14 12 11 14 15 13 12 10 10 10 11 11 11 11 12 12 10 10 10 11 12 11 11 13 16 18 21 22 18 14 12 12 13 12 12 15 13 11 12 9 8 10 12 14 15 16 17 18 19 20 21 21 21 21 21 21 22 21 21 20 19 18 18 16 16 15 14 13 12 12 11 9 8 8 8 8
20 20 19 18 15 15 16 13 13 15 14 12 14 16 15 13 11 11 10 11 12 11 10 12 13 11 11 11 12 12 12 11 12 15 18 21 22 23 20 12 8 8 8 10 12 12 14 14 10 10 13 15 16 17 17 18 18 19 19 19 19 18 18 19 20 21 21 20 20 19 19 18 17 16 15 14 14 13 12 11 10 9 7 6 6
20 20 20 19 16 16 17 14 13 14 13 13 12 13 14 14 12 12 12 12 12 11 10 11 13 12 12 12 12 13 12 12 12 13 17 19 20 24 25 18 11 6 4 6 7 10 17 18 13 11 13 16 18 17 17 17 17 17 16 17 17 17 18 19 20 20 20 20 20 20 19 17 16 15 14 14 13 12 12 11 10 9 8 6 5
21 21 21 20 16 16 16 14 13 13 13 12 11 10 12 12 11 12 13 13 12 10 9 10 11 11 12 11 11 12 12 12 13 12 14 16 17 22 25 24 19 10 4 4 5 10 17 18 16 13 13 16 18 17 17 17 16 16 15 16 16 17 18 18 19 20 21 21 20 19 18 16 15 14 13 12 11 11 10 10 10 9 8 7 5
22 21 21 19 16 15 15 14 15 15 13 13 12 11 11 12 11 11 12 12 10 10 9 9 9 10 11 11 11 12 12 12 12 11 13 15 17 21 22 23 23 17 10 7 6 12 19 17 16 17 16 17 18 17 17 17 16 16 16 16 16 17 18 19 21 22 22 21 19 18 17 15 14 13 12 11 10 9 8 8 8 8 8 7 6
21 20 19 18 17 16 14 15 16 15 13 14 14 13 12 14 13 11 11 10 9 10 9 7 8 8 9 12 12 11 10 11 11 11 14 16 17 20 20 20 23 22 20 14 6 11 20 19 17 19 18 19 19 17 17 17 16 16 16 16 17 18 20 22 23 22 21 20 19 17 16 14 13 12 10 9 7 6 5 5 5 5 6 7 6
20 20 19 17 16 15 16 17 15 13 13 15 15 13 13 14 12 11 11 9 8 10 9 7 8 8 9 11 11 10 11 11 12 13 14 15 17 18 18 19 20 22 25 20 11 10 19 22 21 20 19 20 20 19 18 17 16 15 16 17 18 20 22 23 23 21 20 19 18 16 14 13 12 10 8 7 6 4 3 2 2 3 4 5 6
21 20 18 15 14 14 17 16 13 14 15 14 14 15 14 12 11 11 10 10 9 9 9 10 9 9 9 10 10 11 12 12 13 13 12 13 14 15 16 17 18 21 24 21 16 12 15 22 23 21 21 22 20 20 19 18 17 15 15 17 19 22 24 24 22 21 20 18 17 15 14 12 11 9 8 7 6 4 3 3 2 2 2 4 5
20 19 16 14 14 15 16 14 12 15 15 13 14 15 12 11 12 9 7 10 10 7 9 11 10 9 10 12 12 11 11 11 12 12 12 11 10 11 15 19 18 19 21 20 20 18 17 22 24 22 24 23 21 21 19 17 18 16 16 19 21 23 24 23 22 21 20 18 17 15 14 12 11 10 9 8 7 6 5 5 5 4 4 4 5
20 19 16 16 16 16 16 14 14 14 13 13 14 12 11 12 11 7 7 11 11 8 11 12 10 9 10 12 13 12 12 12 11 10 9 5 5 9 15 19 18 16 17 19 22 22 21 22 24 25 27 24 22 21 19 17 17 17 17 20 23 25 24 23 22 22 22 20 18 17 15 14 13 12 11 10 9 8 8 7 7 7 7 6 6
20 19 17 17 18 17 16 15 14 13 12 13 12 10 11 12 10 9 11 13 10 9 13 14 11 10 10 12 14 13 14 13 8 7 5 1 4 12 14 13 12 12 16 21 23 24 24 23 24 27 29 27 23 22 22 20 17 16 17 20 24 26 25 24 22 22 23 22 20 19 17 16 15 14 13 12 12 11 10 10 10 10 9 8 8
20 20 17 16 17 17 16 16 15 14 13 13 10 10 12 11 9 11 12 10 7 10 14 13 11 11 11 13 14 13 13 10 5 4 3 3 7 12 12 11 12 12 15 19 21 23 25 25 25 26 27 27 25 23 24 23 21 19 18 19 23 26 26 25 24 23 23 23 23 22 21 19 18 17 16 15 14 14 13 12 11 11 11 11 9
21 20 17 16 16 16 16 15 15 15 14 12 10 11 12 11 10 11 10 9 10 14 15 12 11 12 12 12 12 12 10 7 3 3 4 4 6 8 7 8 10 12 12 12 14 17 21 24 25 25 26 25 24 26 27 25 24 23 22 21 23 25 26 26 26 25 24 25 25 24 23 22 21 20 20 19 17 16 16 15 13 13 13 12 11
20 19 17 16 15 15 16 15 14 15 14 12 12 13 12 12 11 11 11 11 12 14 14 11 11 14 14 12 10 9 7 5 3 3 4 5 6 7 7 6 7 8 7 7 9 14 19 20 21 23 25 23 22 26 29 28 25 24 24 25 26 27 28 28 28 28 27 26 27 27 27 25 24 23 22 21 20 19 18 16 15 14 15 14 13
19 19 18 17 15 14 15 16 16 16 15 14 15 13 12 12 13 12 12 12 12 13 13 12 12 14 13 12 9 7 6 5 3 2 4 5 4 5 7 7 7 7 5 5 7 10 15 16 16 19 23 23 21 23 28 28 24 23 26 28 29 29 30 30 29 28 28 28 28 30 30 29 28 26 24 23 22 21 20 18 17 16 16 16 14
19 19 18 16 15 14 16 18 17 16 15 15 15 14 13 14 13 12 12 11 11 12 13 13 13 14 14 13 10 8 7 6 4 2 2 2 2 3 4 5 6 7 5 4 6 6 7 8 9 11 16 20 17 18 25 29 28 28 28 29 29 29 30 32 32 30 29 30 30 31 32 33 32 30 27 26 25 23 22 21 19 19 19 18 16
18 21 19 14 14 16 18 20 18 16 15 14 14 15 15 14 13 12 11 10 9 10 12 13 13 13 14 13 11 11 9 8 7 7 5 4 1 1 1 2 3 4 5 4 3 3 3 3 3 4 7 13 13 12 16 22 25 26 26 29 30 30 28 28 29 32 34 34 34 35 35 34 35 33 30 27 25 24 23 22 20 20 21 20 18
18 21 17 14 17 20 21 21 20 19 18 16 16 16 16 14 13 12 11 11 10 9 10 12 12 11 10 8 7 6 5 5 4 5 5 5 5 4 4 4 3 3 3 2 1 1 0 0 0 1 2 5 9 11 11 13 14 16 20 26 28 28 27 24 23 27 33 37 38 38 38 36 36 35 31 26 23 22 21 20 19 20 22 22 19
20 20 18 20 22 22 21 21 20 19 17 16 16 16 16 15 13 12 12 12 12 11 9 9 9 9 7 5 4 1 2 4 3 2 3 3 4 5 5 5 5 4 4 4 3 2 3 3 3 4 3 2 7 12 14 16 17 15 15 19 21 21 22 24 25 25 29 36 38 37 37 37 36 36 33 28 24 22 19 18 19 21 22 22 20
20 20 21 23 22 20 19 18 18 18 15 13 13 13 14 14 13 12 11 11 11 11 10 7 6 5 4 4 3 1 3 4 4 5 5 5 4 4 6 7 5 3 3 4 4 4 5 6 7 8 7 6 8 9 9 12 16 16 16 18 21 21 18 21 25 25 25 29 32 32 32 32 33 34 33 29 25 22 19 19 20 21 23 23 21
22 22 22 22 20 19 17 16 15 15 14 12 10 10 10 10 10 9 9 10 9 9 9 7 5 3 2 2 2 1 2 4 5 6 6 6 5 5 8 8 6 4 4 5 5 5 6 7 9 10 10 10 11 11 10 11 13 14 15 16 19 20 20 20 21 20 19 21 26 27 24 24 27 27 26 23 21 22 23 22 21 20 20 22 22
21 21 20 20 19 16 14 13 11 12 11 10 8 8 8 8 7 5 6 9 10 9 7 6 5 4 2 3 3 2 2 3 4 6 6 6 7 7 7 6 5 6 6 7 7 8 8 9 11 12 12 12 12 12 12 13 12 12 13 14 15 16 16 16 16 15 14 16 23 25 18 13 16 18 18 18 18 19 21 22 23 21 18 19 22
16 15 15 16 16 14 12 10 9 9 9 7 6 6 6 5 4 3 5 7 9 8 7 6 5 4 4 4 4 3 1 4 5 5 6 6 7 7 8 8 8 8 8 8 9 9 10 11 12 12 12 12 12 13 14 14 14 12 12 13 15 13 11 10 11 11 10 12 19 24 17 9 9 11 13 14 14 13 14 18 23 22 18 19 23
10 10 12 14 15 15 14 12 10 9 9 7 6 6 5 4 4 5 7 9 10 10 8 7 6 5 6 5 4 3 1 5 5 4 5 5 5 6 7 9 9 10 10 10 11 11 11 11 11 11 12 13 14 14 15 16 15 13 12 14 15 15 13 12 11 11 11 11 14 16 13 10 11 12 11 12 12 9 9 13 18 18 14 17 21
15 13 14 15 16 15 15 14 12 11 12 11 9 7 7 7 6 7 9 10 12 13 11 9 8 6 6 5 3 3 1 2 2 2 3 3 3 4 5 8 10 11 11 12 13 13 11 10 10 10 10 11 12 13 12 12 13 12 13 14 15 16 16 17 16 14 13 11 11 12 11 10 13 14 13 11 11 10 10 10 12 15 15 17 20
19 17 16 17 17 17 17 16 14 14 15 14 12 10 9 9 8 8 9 10 12 13 11 8 7 5 4 4 4 3 2 2 2 2 3 4 5 5 5 7 10 11 11 11 11 11 10 9 10 10 9 9 9 9 9 10 12 12 12 13 14 15 15 16 15 12 8 9 12 14 13 12 14 15 13 11 8 9 13 13 14 18 20 21 21
Wind_Direction
179 177 180 185 187 186 182 179 178 178 182 183 175 174 183 180 169 168 168 172 190 201 218 206 202 212 219 196 155 152 158 148 135 133 129 123 120 118 122 125 126 125 122 119 117 115 114 113 113 114 114 113 113 110 107 106 105 105 104 102 101 101 102 103 103 100 97 96 97 101 103 100 99 99 99 98 94 92 92 92 93 91 88 86 84
179 179 179 178 184 190 193 198 196 178 175 177 176 180 181 180 185 184 179 187 199 203 207 190 187 203 189 169 163 159 160 155 141 133 129 124 121 119 123 128 129 125 120 119 120 119 120 121 119 116 114 112 110 110 111 111 107 105 105 106 104 102 104 104 104 101 97 96 97 101 100 97 100 102 102 100 95 93 93 93 92 90 88 87 86
177 179 178 176 186 195 194 202 205 192 186 194 195 201 195 186 184 177 177 178 170 167 175 171 163 179 163 143 158 163 162 159 148 137 130 129 129 124 123 125 126 124 122 124 126 124 123 122 120 117 118 116 115 118 117 113 109 107 106 108 106 104 104 103 103 103 100 99 101 102 100 98 99 100 101 101 96 95 96 95 94 92 91 89 87
172 176 181 182 190 196 182 165 175 180 187 203 200 203 201 192 184 170 168 167 152 141 152 157 141 155 161 146 158 164 164 163 153 141 135 135 136 130 125 123 123 126 130 132 128 122 120 118 119 119 121 120 114 113 115 116 116 113 109 108 108 107 106 106 105 104 104 103 104 105 102 98 96 97 98 100 100 97 96 95 95 95 94 93 91
176 175 178 182 187 193 183 164 166 172 177 194 193 199 200 190 183 161 154 167 141 128 143 149 138 147 162 161 164 166 165 165 155 147 142 137 138 137 133 127 123 124 128 132 129 125 124 123 121 118 120 122 117 114 116 119 121 118 114 111 111 111 110 107 104 103 103 103 105 104 101 97 96 96 94 97 100 97 94 94 94 95 94 94 95
184 180 176 178 179 180 178 169 170 172 178 196 192 196 201 195 188 153 157 181 135 125 148 145 142 150 161 164 165 168 168 164 157 154 149 141 141 142 140 134 130 127 127 133 134 133 132 129 126 119 114 115 117 122 123 116 116 121 120 116 114 114 112 109 105 103 102 102 104 104 103 100 98 97 95 96 97 97 98 97 93 94 93 93 97
179 180 173 172 169 162 165 164 164 164 168 191 196 195 196 199 195 154 167 185 132 134 148 138 142 152 162 166 165 168 169 163 160 160 156 149 146 144 144 142 139 138 136 137 136 135 135 132 128 121 113 110 108 111 118 120 120 122 122 121 120 117 114 113 110 104 103 103 102 101 101 102 101 98 96 96 95 96 99 97 92 92 92 92 95
166 165 164 165 162 157 162 165 167 162 162 179 192 197 194 207 206 159 172 182 143 146 149 138 143 144 147 153 159 168 168 163 161 162 160 156 153 148 147 147 146 148 149 148 144 140 138 136 131 126 123 115 105 100 104 115 125 127 124 123 122 119 116 114 112 109 107 106 104 104 104 104 104 101 99 98 97 97 96 93 92 92 92 93 94
164 158 159 164 164 163 163 162 163 162 169 184 192 197 193 208 213 154 166 173 154 153 148 137 135 133 132 134 144 161 166 166 165 163 163 164 164 158 154 156 156 153 154 159 160 154 148 148 142 138 138 127 118 109 98 104 116 123 125 122 119 119 116 114 114 113 113 112 107 107 106 103 101 100 100 100 100 100 98 94 93 94 94 94 94
175 171 173 174 171 170 165 162 163 166 176 184 189 192 191 193 177 138 158 164 156 152 145 133 126 131 135 131 140 155 165 169 167 166 171 172 169 167 166 167 167 161 160 160 164 167 162 163 160 150 150 143 137 132 111 106 107 113 124 121 111 113 114 116 118 115 115 116 112 108 105 103 103 102 100 100 101 102 101 98 97 96 96 97 96
187 187 189 185 178 173 170 172 175 176 179 177 179 186 189 183 156 138 155 158 155 148 143 136 134 148 141 132 144 153 162 171 167 167 170 168 165 170 176 177 173 169 169 162 160 172 173 175 172 159 158 154 149 145 134 132 123 115 121 117 107 112 117 118 121 121 119 120 118 114 110 108 106 103 101 102 104 105 105 104 101 99 98 97 97
190 189 190 185 180 178 178 181 181 179 179 178 180 180 182 172 147 148 150 147 152 145 139 136 136 142 132 132 147 144 147 160 161 162 161 167 168 169 177 182 179 176 177 169 161 168 171 173 172 165 167 161 154 152 145 151 152 136 123 119 118 123 127 123 122 128 129 123 117 113 111 109 105 103 103 105 110 110 109 108 105 102 100 98 97
188 188 187 181 181 183 184 187 180 177 180 182 186 177 172 160 150 167 152 138 147 148 143 138 128 125 124 131 138 126 127 139 150 161 156 165 173 171 177 180 179 179 180 175 170 172 169 169 168 161 167 166 156 151 148 150 152 142 133 130 129 130 134 131 127 134 134 123 114 109 106 107 107 105 103 105 109 111 111 111 108 105 102 99 96
188 190 186 180 183 185 188 192 181 179 182 182 188 179 172 160 154 177 156 137 147 156 155 149 133 132 131 124 114 107 112 125 144 157 149 154 168 172 180 178 175 178 181 178 174 176 174 173 171 159 157 162 157 152 153 148 136 137 142 140 131 132 141 137 130 136 132 123 116 111 108 108 108 106 103 104 106 108 111 111 108 104 101 96 92
187 189 185 182 186 186 188 191 182 183 185 181 185 180 176 164 160 181 164 140 147 160 164 163 147 139 131 127 131 108 102 112 126 136 141 149 159 167 174 173 171 175 180 178 171 168 171 175 175 168 160 159 159 156 154 150 142 142 150 149 140 140 144 136 133 140 135 126 123 123 119 115 112 108 108 110 109 110 110 109 108 106 104 100 96
182 185 186 185 188 190 190 190 183 185 188 181 176 175 171 162 169 189 170 147 148 159 172 175 156 147 134 126 138 126 124 131 117 111 144 152 153 158 160 160 163 167 168 167 165 162 164 170 175 180 175 168 169 166 158 155 152 149 152 153 151 149 147 138 137 145 144 136 133 133 128 123 119 117 119 119 117 117 113 111 110 108 110 107 101
183 185 187 187 191 195 191 187 184 184 186 178 167 168 169 166 177 188 172 162 157 154 162 172 165 159 148 136 130 123 187 156 131 113 145 157 155 154 153 154 156 159 154 150 154 157 156 160 169 180 181 179 179 172 165 164 160 155 155 158 159 159 155 148 141 144 144 141 140 140 136 132 128 125 127 126 123 122 116 114 113 111 111 106 103
187 185 187 191 194 194 190 187 187 181 179 177 167 165 170 173 182 183 174 172 166 156 156 168 175 174 162 152 155 165 157 153 140 107 131 151 156 159 160 155 151 154 155 149 149 152 152 151 156 165 171 177 178 173 171 170 167 161 158 163 168 168 162 154 145 142 142 141 142 143 142 142 139 131 127 126 125 124 121 119 117 116 110 102 102
188 187 190 197 197 193 190 187 184 176 171 175 174 172 173 176 184 183 178 176 172 163 160 168 177 177 170 154 128 154 158 157 153 140 133 146 153 156 158 159 158 158 158 155 153 154 155 154 155 158 163 171 173 172 175 172 166 162 161 166 172 172 167 161 155 151 150 148 149 149 148 149 147 140 131 128 128 128 127 124 121 119 111 105 105
188 188 192 197 197 193 191 185 180 175 174 180 178 175 178 182 185 183 181 179 180 175 166 170 174 166 158 141 123 144 159 164 161 149 130 122 147 149 152 158 162 159 158 159 157 156 160 162 161 160 162 168 172 175 178 174 166 165 167 167 170 176 174 168 165 163 160 161 161 156 157 159 153 147 138 132 132 133 131 128 124 119 113 109 108
187 189 192 193 192 191 189 180 175 176 180 183 179 176 182 187 187 184 184 180 181 183 175 175 178 167 154 142 133 137 146 157 160 152 139 142 147 143 152 150 149 154 156 154 148 149 156 162 165 162 163 168 173 175 176 177 174 170 170 169 171 177 177 175 173 170 169 169 167 161 159 157 151 146 141 136 136 135 132 128 123 118 114 110 106
184 184 183 179 176 182 183 179 177 177 180 182 180 179 179 185 188 188 191 186 177 177 176 177 181 174 163 154 149 146 140 144 156 154 149 149 144 151 161 156 147 155 159 150 144 147 154 159 160 158 160 167 172 173 170 173 177 173 166 165 168 169 173 177 175 170 169 164 159 154 149 144 144 144 141 139 135 130 125 120 117 115 113 111 108
175 172 170 163 158 171 176 174 175 173 176 182 182 180 177 180 188 189 190 189 178 169 167 170 175 175 174 169 165 163 162 163 163 158 155 150 141 151 166 160 149 153 158 152 149 152 154 153 153 155 162 168 172 171 165 167 170 167 163 159 158 160 166 170 165 158 152 144 141 142 140 139 143 145 142 136 130 125 122 120 119 118 115 114 112
166 162 163 156 147 157 162 162 166 168 174 178 177 181 184 185 190 191 187 184 178 171 166 165 170 173 176 179 177 173 173 176 172 167 166 161 152 151 163 157 144 147 154 151 152 158 157 149 150 158 166 169 168 163 162 165 161 157 155 151 149 150 151 150 146 142 137 136 137 137 138 143 145 144 138 131 127 124 123 123 122 120 117 114 112
159 158 160 154 145 148 155 161 167 169 168 167 171 177 176 174 175 177 179 177 173 173 172 169 172 175 174 174 176 172 170 176 176 173 171 163 154 149 157 154 141 145 154 151 148 150 151 151 154 161 166 164 158 154 155 153 148 148 146 143 145 146 145 144 142 142 144 147 147 143 143 148 145 139 132 126 122 117 113 113 113 114 117 116 114
155 156 156 154 151 152 155 157 161 166 164 161 173 175 164 160 164 166 172 175 175 179 179 176 177 179 174 170 169 168 170 178 177 169 166 163 158 152 149 145 139 143 150 149 147 146 148 154 161 162 160 157 150 147 148 144 142 146 146 145 147 149 148 148 148 151 154 155 152 149 147 145 139 134 128 122 116 111 106 105 105 107 112 115 117
155 152 149 151 152 155 162 160 154 158 157 152 166 174 167 161 166 172 174 173 176 183 185 181 178 175 171 171 174 177 180 182 179 170 165 166 164 158 150 140 136 142 143 144 151 157 155 155 164 167 159 153 150 146 144 144 145 149 151 150 150 152 153 153 154 156 158 156 151 147 144 140 137 132 127 121 113 108 104 101 100 100 101 105 107
154 151 150 153 149 149 160 167 163 159 157 155 157 163 167 169 172 180 179 175 178 185 185 181 179 176 173 178 186 186 184 180 176 171 169 169 170 166 159 152 148 142 138 143 150 161 160 155 159 172 167 157 153 152 149 149 152 156 158 157 153 155 157 158 159 159 157 153 149 146 145 141 139 134 129 124 117 109 102 96 91 88 86 89 91
154 153 154 154 151 150 156 165 171 168 162 162 155 151 164 172 172 173 170 168 172 171 165 166 170 174 176 180 185 179 173 172 170 167 170 173 175 173 168 162 156 147 142 160 162 169 169 163 158 167 179 170 160 158 158 156 159 162 163 161 157 157 161 162 162 160 156 154 152 150 149 145 141 138 134 128 121 113 104 94 85 78 72 68 66
150 150 152 154 156 159 160 160 165 165 160 159 155 147 151 154 152 155 155 154 155 152 148 150 154 161 167 168 170 167 162 162 165 167 171 174 178 179 176 171 164 159 156 159 173 179 174 170 168 171 178 177 168 164 164 162 163 167 167 166 164 162 163 164 162 160 159 158 157 155 151 149 146 143 139 134 127 118 107 95 82 72 62 54 46
148 146 150 155 156 159 160 156 157 160 158 158 156 147 143 146 146 146 148 147 150 152 150 147 150 153 156 157 160 163 163 160 159 166 171 173 177 180 180 178 175 172 168 160 168 187 176 172 175 175 174 175 173 170 169 168 169 171 172 170 168 166 165 165 164 165 165 163 162 160 157 156 154 151 147 143 139 130 116 101 82 64 52 42 34
149 149 151 154 154 154 154 156 157 156 152 155 156 150 146 149 150 151 151 148 153 160 158 150 151 153 153 155 158 161 165 168 164 164 170 174 178 182 185 184 182 181 176 166 158 177 180 179 179 177 175 174 175 174 170 171 174 176 178 177 173 171 168 167 169 170 170 169 167 167 167 166 165 165 165 165 163 162 156 130 78 48 34 26 20
153 154 154 155 154 152 154 157 157 152 150 151 150 150 149 150 153 158 161 161 160 165 166 160 159 163 162 160 161 161 162 169 173 172 173 174 178 186 191 189 183 181 177 167 155 154 169 179 179 178 178 174 173 175 173 174 177 179 184 185 179 176 173 173 176 177 177 177 177 178 180 180 182 184 187 193 198 205 216 229 254 313 343 351 356
157 158 157 155 152 152 155 157 154 153 152 146 146 154 159 159 161 165 176 176 169 168 168 162 157 164 169 166 164 165 166 168 173 176 173 173 187 201 198 192 185 181 176 165 155 149 155 171 174 173 177 176 172 176 180 183 182 181 187 190 185 181 180 180 181 183 185 187 189 191 193 196 200 204 208 214 221 229 240 247 255 269 287 309 326
157 155 154 156 155 153 153 154 157 157 153 148 155 161 158 157 161 158 151 154 153 151 153 152 150 153 161 166 165 166 171 170 170 179 183 189 206 197 190 189 187 183 180 170 161 155 156 167 174 172 175 180 179 181 189 195 192 185 188 194 190 186 187 189 190 191 193 196 199 202 206 210 213 218 222 227 234 241 248 253 256 261 270 286 302
157 150 151 161 162 158 157 157 159 158 155 158 162 158 154 154 151 136 131 137 148 156 149 147 154 158 155 161 163 164 171 173 173 184 190 164 146 152 151 159 170 178 180 173 165 161 161 168 177 177 179 185 188 186 188 195 197 193 192 196 195 193 194 196 199 201 202 204 208 211 216 220 224 228 230 234 240 247 254 259 260 260 265 275 287
157 149 153 163 162 159 158 158 161 161 162 167 162 154 161 160 141 135 135 131 143 160 153 144 150 156 153 155 159 164 170 172 169 175 163 92 117 135 129 124 137 153 165 165 162 164 167 172 178 181 182 186 189 189 190 194 196 195 197 201 200 200 201 204 208 210 211 213 215 219 223 227 230 233 235 237 243 249 256 261 262 261 264 269 276
154 150 153 157 156 159 158 158 163 163 163 169 160 153 160 156 142 141 137 116 116 138 145 139 140 144 141 145 155 163 168 169 163 152 140 118 108 110 111 121 134 140 147 156 167 176 177 174 176 181 183 183 186 189 194 198 198 195 197 203 206 207 208 210 215 218 220 221 221 223 227 229 231 233 235 237 242 248 253 256 260 260 261 265 270
152 153 155 154 156 161 158 155 160 163 163 163 157 155 159 157 150 143 134 120 114 123 128 124 136 144 141 144 153 157 164 170 160 111 106 121 116 91 87 107 136 149 143 139 166 189 190 182 179 184 188 188 188 192 196 200 202 201 198 197 202 209 214 217 220 222 226 228 228 230 231 231 235 237 238 240 243 247 252 255 258 258 258 259 262
155 157 156 156 158 161 158 155 158 163 165 161 158 159 160 155 150 140 132 127 117 118 118 107 119 135 137 140 144 140 146 154 149 124 97 99 109 93 87 106 134 152 147 120 136 170 186 190 190 193 197 197 193 193 194 193 194 201 204 202 203 208 213 219 224 226 228 231 233 234 234 233 234 236 238 241 244 246 251 253 253 253 254 255 255
164 161 158 158 160 158 155 154 155 158 158 156 157 158 149 143 141 134 132 132 115 112 116 104 102 113 116 116 115 104 102 96 77 83 102 99 122 111 96 111 131 139 138 119 116 126 145 171 183 188 200 205 199 189 190 193 198 204 208 208 211 213 213 217 223 227 230 235 236 236 235 233 232 234 235 239 244 246 248 249 249 248 248 248 249
161 160 160 157 152 150 148 145 143 141 138 137 141 143 141 140 138 131 131 138 127 116 116 107 102 109 110 106 103 94 84 76 63 48 36 28 7 252 197 165 152 153 156 146 136 127 105 114 144 164 191 205 208 195 190 199 209 213 210 209 214 218 214 215 223 227 229 234 236 236 237 235 232 233 235 241 247 247 246 248 249 248 246 244 245
149 154 155 139 132 137 137 133 130 126 122 119 121 127 134 138 135 126 118 117 119 119 119 111 102 106 111 105 98 85 54 42 52 41 27 23 13 344 304 270 253 238 216 197 172 176 186 66 245 256 184 196 221 230 226 225 229 228 220 216 218 219 212 210 219 225 228 231 231 233 236 235 231 231 234 239 242 241 243 246 246 246 245 242 241
145 148 140 127 125 128 127 123 119 117 113 110 112 117 124 127 123 116 104 93 91 90 96 105 98 94 94 78 78 118 304 327 339 331 318 326 344 346 329 304 278 269 274 277 283 285 273 270 263 257 253 244 244 245 248 252 253 250 238 229 230 230 220 214 217 222 229 230 226 226 232 232 229 230 234 237 236 234 239 244 245 243 241 238 236
137 136 128 123 122 121 120 114 109 110 109 106 107 108 113 119 118 109 94 80 74 68 68 78 83 81 76 51 51 206 257 292 302 294 289 291 294 289 297 307 309 297 291 293 297 302 291 284 284 276 268 263 254 245 248 258 260 261 256 246 244 248 245 235 229 230 234 231 222 220 227 232 232 231 232 236 240 243 246 245 242 241 240 236 231
118 118 118 119 116 112 111 109 106 105 106 105 106 106 106 110 112 102 81 66 64 63 62 66 64 56 30 0 0 318 282 288 283 275 271 274 273 264 272 291 311 311 301 299 294 295 296 292 291 290 283 273 265 259 260 265 266 266 264 258 256 258 262 261 252 243 239 232 222 220 227 237 238 235 232 236 246 252 254 253 248 242 237 233 228
102 105 110 113 111 103 97 103 108 103 99 100 103 104 102 100 105 97 68 63 70 75 74 72 66 57 34 0 350 337 283 270 277 270 262 261 265 267 267 275 296 301 294 293 291 290 292 290 289 290 285 276 273 269 263 259 261 266 266 263 264 267 268 266 254 239 232 226 219 218 221 232 235 231 230 237 247 251 252 253 252 244 230 222 224
91 93 104 108 113 115 109 111 118 107 95 91 91 94 98 103 111 91 67 76 86 85 76 64 56 55 50 31 17 14 258 247 261 269 268 262 260 264 265 271 288 295 285 284 291 293 293 292 290 287 278 267 263 265 264 260 262 268 264 252 248 250 253 247 233 227 224 210 209 213 214 214 224 223 220 229 246 254 248 243 243 239 226 215 216
110 103 109 108 111 120 119 117 119 110 94 81 75 80 86 94 102 94 94 98 92 83 74 68 68 71 69 63 57 69 201 240 251 264 268 260 257 260 256 257 272 280 277 282 289 292 294 295 292 284 273 265 263 266 269 268 265 262 252 242 241 243 243 235 229 230 223 202 201 216 221 218 221 221 215 226 244 247 232 232 234 230 224 219 216
133 126 122 113 105 106 106 104 103 99 89 78 73 80 85 86 89 94 100 100 91 85 85 82 80 85 88 90 96 110 150 249 260 274 287 291 302 298 267 256 268 275 280 288 293 296 297 295 289 281 273 272 273 273 271 265 260 254 246 245 248 246 242 235 232 234 234 229 234 246 241 217 212 214 209 214 228 223 211 222 228 221 219 219 215
128 126 123 115 104 98 96 95 93 90 86 78 72 77 81 78 79 87 95 100 95 93 96 97 90 86 96 106 110 110 91 41 11 346 342 344 340 332 302 273 272 277 285 293 295 298 300 296 290 284 281 282 281 277 268 256 252 250 246 245 243 238 235 235 232 232 245 256 252 246 236 220 222 226 213 196 202 222 227 228 224 219 217 212 211